Knoxville, TN

3:18 AM EDT on April 23, 2017 (GMT -0400)
McGhee Tyson

Weather History for KTYS - February, 2015

Change the Weather History Date:

Tuesday, February 24, 2015

  Actual Average Record
Temperature  
Mean Temperature 28 °F 45 °F  
Max Temperature 31 °F 55 °F 79 °F (2017)
Min Temperature 24 °F 34 °F 5 °F (1873)
Degree Days  
Heating Degree Days 37 20  
Month to date heating degree days 775 556  
Since 1 July heating degree days 3126 2818  
Cooling Degree Days 0 0  
Month to date cooling degree days 0 0  
Year to date cooling degree days 0 0  
Moisture  
Dew Point 22 °F    
Average Humidity 75    
Maximum Humidity 92    
Minimum Humidity 58    
Precipitation  
Precipitation 0.27 in 0.16 in 4.34 in (1875)
Month to date precipitation 3.35 3.66  
Year to date precipitation 6.74 7.98  
Snow  
Snow 3.00 in 0.00 in - ()
Month to date snowfall 3.7 1.4  
Since 1 July snowfall 4.8 4.9  
Snow Depth 2.00 in    
Sea Level Pressure  
Sea Level Pressure 30.12 in    
Wind  
Wind Speed 5 mph (WNW)    
Max Wind Speed 12 mph    
Max Gust Speed 14 mph    
Visibility 4 miles    
Events Fog , Snow    
T = Trace of Precipitation, MM = Missing Value Source: NWS Daily Summary

Daily Weather History Graph

Daily Weather History Graph

Search for Another Location

Airport or City:

Trip Planner

Search our weather history database for the weather conditions in past years. The results will help you decide how hot, cold, wet, or windy it might be!

Date:

Astronomy

Feb. 24, 2015 Rise Set
Actual Time 7:12 AM EST 6:26 PM EST
Civil Twilight 6:46 AM EST 6:52 PM EST
Nautical Twilight 6:17 AM EST 7:21 PM EST
Astronomical Twilight 5:47 AM EST 7:51 PM EST
Moon 10:59 AM EST (2/24) 12:00 AM EST (2/24)
Length of Visible Light 12h 05m
Length of Day
11h 13m
Waxing Crescent, 39% of the Moon is Illuminated
Feb 24
Waxing Crescent
Feb 25
First Quarter
Mar 5
Full
Mar 13
Last Quarter
Mar 20
New

Hourly Weather History & Observations

Time (EST) Temp. Windchill Dew Point Humidity Pressure Visibility Wind Dir Wind Speed Gust Speed Precip Events Conditions
12:53 AM 28.0 °F 18.6 °F 16.0 °F 61% 30.23 in 10.0 mi NNE 10.4 mph - N/A   Overcast
1:33 AM 28.0 °F 19.3 °F 16.0 °F 61% 30.21 in 10.0 mi NE 9.2 mph - N/A   Overcast
1:53 AM 28.0 °F 24.2 °F 16.0 °F 61% 30.23 in 9.0 mi Variable 3.5 mph - N/A   Overcast
2:16 AM 27.0 °F 18.7 °F 18.0 °F 69% 30.21 in 5.0 mi NE 8.1 mph - 0.00 in Snow Light Snow
2:18 AM 27.0 °F 19.5 °F 18.0 °F 69% 30.21 in 2.5 mi NNE 6.9 mph - 0.00 in Snow Light Snow
2:26 AM 27.0 °F 19.5 °F 19.0 °F 72% 30.21 in 1.8 mi NNE 6.9 mph - 0.00 in Snow Light Snow
2:38 AM 25.0 °F 17.1 °F 19.9 °F 81% 30.21 in 1.0 mi North 6.9 mph - 0.01 in Snow Light Snow
2:48 AM 24.8 °F 17.9 °F 21.2 °F 86% 30.22 in 0.5 mi North 5.8 mph - 0.02 in Snow Snow
2:53 AM 25.0 °F 18.1 °F 21.9 °F 88% 30.24 in 0.5 mi North 5.8 mph - 0.03 in Snow Snow
2:59 AM 24.1 °F 18.2 °F 21.9 °F 91% 30.21 in 0.8 mi NNE 4.6 mph - 0.00 in Snow Light Snow
3:17 AM 24.1 °F 18.2 °F 21.9 °F 91% 30.20 in 1.0 mi North 4.6 mph - 0.02 in Snow Light Snow
3:53 AM 24.1 °F 17.0 °F 21.9 °F 91% 30.23 in 1.0 mi NNE 5.8 mph - 0.04 in Snow Light Snow
4:31 AM 24.1 °F 18.2 °F 21.9 °F 91% 30.19 in 0.8 mi North 4.6 mph - 0.02 in Snow Light Snow
4:53 AM 24.1 °F 17.0 °F 21.9 °F 91% 30.21 in 0.5 mi North 5.8 mph - 0.04 in Snow Snow
5:20 AM 24.1 °F 18.2 °F 21.9 °F 91% 30.18 in 0.8 mi North 4.6 mph - 0.01 in Snow Light Snow
5:42 AM 24.1 °F 18.2 °F 21.9 °F 91% 30.17 in 0.5 mi NE 4.6 mph - 0.03 in Fog , Snow Snow
5:53 AM 24.1 °F 19.7 °F 21.9 °F 91% 30.20 in 0.5 mi NE 3.5 mph - 0.04 in Fog , Snow Snow
6:29 AM 24.1 °F - 23.0 °F 96% 30.16 in 0.8 mi Calm Calm - 0.03 in Snow Light Snow
6:34 AM 24.1 °F - 23.0 °F 96% 30.16 in 1.0 mi Calm Calm - 0.04 in Snow Light Snow
6:50 AM 24.8 °F - 23.0 °F 93% 30.17 in 1.0 mi Calm Calm - 0.04 in Snow Light Snow
6:53 AM 24.1 °F 19.7 °F 23.0 °F 96% 30.19 in 1.2 mi North 3.5 mph - 0.04 in Snow Light Snow
7:12 AM 25.0 °F - 23.0 °F 92% 30.16 in 0.8 mi Calm Calm - 0.01 in Snow Light Snow
7:26 AM 24.1 °F 19.7 °F 21.9 °F 91% 30.16 in 0.8 mi WNW 3.5 mph - 0.02 in Snow Light Snow
7:33 AM 24.1 °F 18.2 °F 21.9 °F 91% 30.15 in 0.8 mi NW 4.6 mph - 0.02 in Snow Light Snow
7:40 AM 24.1 °F 18.2 °F 21.9 °F 91% 30.15 in 0.8 mi NW 4.6 mph - 0.02 in Snow Light Snow
7:53 AM 24.1 °F 19.7 °F 21.9 °F 91% 30.18 in 0.8 mi NW 3.5 mph - 0.02 in Snow Light Snow
8:53 AM 24.1 °F - 21.9 °F 91% 30.17 in 1.0 mi Calm Calm - 0.03 in Snow Light Snow
9:19 AM 24.1 °F 18.2 °F 21.9 °F 91% 30.13 in 3.0 mi WNW 4.6 mph - 0.01 in Snow Light Snow
9:32 AM 24.1 °F 19.7 °F 21.9 °F 91% 30.13 in 3.0 mi WNW 3.5 mph - 0.01 in Snow Light Snow
9:45 AM 24.1 °F 19.7 °F 21.9 °F 91% 30.12 in 1.0 mi West 3.5 mph - 0.01 in Snow Light Snow
9:53 AM 24.1 °F 18.2 °F 21.9 °F 91% 30.16 in 1.0 mi WNW 4.6 mph - 0.01 in Snow Light Snow
10:15 AM 25.0 °F 19.3 °F 21.9 °F 88% 30.12 in 2.5 mi WNW 4.6 mph - 0.00 in Snow Light Snow
10:32 AM 25.0 °F 20.7 °F 21.9 °F 88% 30.12 in 1.2 mi West 3.5 mph - 0.01 in Snow Light Snow
10:53 AM 25.0 °F - 21.9 °F 88% 30.14 in 1.0 mi Calm Calm - 0.01 in Snow Light Snow
11:09 AM 25.0 °F - 23.0 °F 92% 30.10 in 2.0 mi Calm Calm - 0.00 in Snow Light Snow
11:22 AM 24.1 °F - 23.0 °F 96% 30.10 in 2.0 mi Calm Calm - 0.01 in Snow Light Snow
11:27 AM 25.0 °F 19.3 °F 23.0 °F 92% 30.09 in 3.0 mi SSW 4.6 mph - 0.01 in   Overcast
11:53 AM 25.0 °F 20.7 °F 23.0 °F 92% 30.12 in 6.0 mi SW 3.5 mph - 0.01 in Snow Light Snow
12:06 PM 25.0 °F 19.3 °F 23.0 °F 92% 30.08 in 4.0 mi SW 4.6 mph - 0.00 in Snow Light Snow
12:13 PM 26.1 °F 20.5 °F 23.0 °F 88% 30.08 in 4.0 mi SSW 4.6 mph - 0.00 in Snow Light Snow
12:46 PM 27.0 °F 20.5 °F 23.0 °F 85% 30.07 in 9.0 mi West 5.8 mph - 0.00 in Snow Light Snow
12:53 PM 27.0 °F 21.6 °F 23.0 °F 85% 30.09 in 9.0 mi WNW 4.6 mph - 0.00 in   Overcast
1:53 PM 28.0 °F 19.3 °F 24.1 °F 85% 30.05 in 10.0 mi SSW 9.2 mph - N/A   Overcast
2:22 PM 28.0 °F 20.8 °F 24.1 °F 85% 30.02 in 10.0 mi SW 6.9 mph - N/A   Overcast
2:53 PM 28.9 °F 21.1 °F 25.0 °F 85% 30.03 in 10.0 mi WSW 8.1 mph - N/A   Overcast
3:53 PM 30.0 °F 24.1 °F 25.0 °F 82% 30.02 in 10.0 mi SW 5.8 mph - N/A   Overcast
4:09 PM 30.9 °F 24.3 °F 25.0 °F 79% 29.99 in 10.0 mi SW 6.9 mph - N/A   Overcast
4:53 PM 30.9 °F 23.5 °F 26.1 °F 82% 30.00 in 10.0 mi South 8.1 mph - N/A   Overcast
5:53 PM 30.9 °F 22.2 °F 26.1 °F 82% 29.99 in 10.0 mi SSW 10.4 mph - N/A   Overcast
6:53 PM 28.9 °F 20.4 °F 25.0 °F 85% 29.98 in 10.0 mi SSW 9.2 mph - N/A   Scattered Clouds
7:53 PM 27.0 °F 20.5 °F 25.0 °F 92% 29.99 in 10.0 mi SW 5.8 mph - N/A   Scattered Clouds
8:53 PM 26.1 °F - 24.1 °F 92% 29.99 in 10.0 mi Calm Calm - N/A   Clear
9:53 PM 26.1 °F - 23.0 °F 88% 30.00 in 7.0 mi Calm Calm - N/A   Clear
10:53 PM 24.1 °F 19.7 °F 23.0 °F 96% 30.01 in 6.0 mi SW 3.5 mph - N/A   Clear
11:53 PM 25.0 °F 17.1 °F 23.0 °F 92% 30.00 in 6.0 mi West 6.9 mph - N/A   Clear